Year,Month,Day,Hour,Minute,Value (Times are PST for temperature in C)
2015,02,16,00,00,2.70
2015,02,16,00,01,2.70
2015,02,16,00,02,2.70
2015,02,16,00,03,2.70
2015,02,16,00,04,2.70
2015,02,16,00,05,2.80
2015,02,16,00,06,2.80
2015,02,16,00,07,2.80
2015,02,16,00,08,2.80
2015,02,16,00,09,2.80
2015,02,16,00,10,2.80
2015,02,16,00,11,2.70
2015,02,16,00,12,2.70
2015,02,16,00,13,2.70
2015,02,16,00,14,2.70
2015,02,16,00,15,2.60
2015,02,16,00,16,2.50
2015,02,16,00,17,2.50
2015,02,16,00,18,2.50
2015,02,16,00,19,2.50
2015,02,16,00,20,2.40
2015,02,16,00,21,2.40
2015,02,16,00,22,2.40
2015,02,16,00,23,2.30
2015,02,16,00,24,2.30
2015,02,16,00,25,2.30
2015,02,16,00,26,2.20
2015,02,16,00,27,2.20
2015,02,16,00,28,2.20
2015,02,16,00,29,2.20
2015,02,16,00,30,2.20
2015,02,16,00,31,2.20
2015,02,16,00,32,2.20
2015,02,16,00,33,2.10
2015,02,16,00,34,2.10
2015,02,16,00,35,2.10
2015,02,16,00,36,2.10
2015,02,16,00,37,2.10
2015,02,16,00,38,2.10
2015,02,16,00,39,2.10
2015,02,16,00,40,2.00
2015,02,16,00,41,2.00
2015,02,16,00,42,2.00
2015,02,16,00,43,2.00
2015,02,16,00,44,2.00
2015,02,16,00,45,2.00
2015,02,16,00,46,2.00
2015,02,16,00,47,2.00
2015,02,16,00,48,2.00
2015,02,16,00,49,2.00
2015,02,16,00,50,2.00
2015,02,16,00,51,2.10
2015,02,16,00,52,2.10
2015,02,16,00,53,2.20
2015,02,16,00,54,2.20
2015,02,16,00,55,2.20
2015,02,16,00,56,2.30
2015,02,16,00,57,2.30
2015,02,16,00,58,2.30
2015,02,16,00,59,2.40
2015,02,16,01,00,2.40
2015,02,16,01,01,2.50
2015,02,16,01,02,2.50
2015,02,16,01,03,2.50
2015,02,16,01,04,2.50
2015,02,16,01,05,2.50
2015,02,16,01,06,2.60
2015,02,16,01,07,2.60
2015,02,16,01,08,2.60
2015,02,16,01,09,2.60
2015,02,16,01,10,2.60
2015,02,16,01,11,2.60
2015,02,16,01,12,2.60
2015,02,16,01,13,2.60
2015,02,16,01,14,2.60
2015,02,16,01,15,2.60
2015,02,16,01,16,2.60
2015,02,16,01,17,2.60
2015,02,16,01,18,2.70
2015,02,16,01,19,2.70
2015,02,16,01,20,2.70
2015,02,16,01,21,2.70
2015,02,16,01,22,2.70
2015,02,16,01,23,2.70
2015,02,16,01,24,2.90
2015,02,16,01,25,2.90
2015,02,16,01,26,2.90
2015,02,16,01,27,2.90
2015,02,16,01,28,2.90
2015,02,16,01,29,2.80
2015,02,16,01,30,2.80
2015,02,16,01,31,2.80
2015,02,16,01,32,2.80
2015,02,16,01,33,2.80
2015,02,16,01,34,2.70
2015,02,16,01,35,2.70
2015,02,16,01,36,2.70
2015,02,16,01,37,2.70
2015,02,16,01,38,2.70
2015,02,16,01,39,2.70
2015,02,16,01,40,2.70
2015,02,16,01,41,2.70
2015,02,16,01,42,2.70
2015,02,16,01,43,2.70
2015,02,16,01,44,2.70
2015,02,16,01,45,2.60
2015,02,16,01,46,2.60
2015,02,16,01,47,2.60
2015,02,16,01,48,2.50
2015,02,16,01,49,2.50
2015,02,16,01,50,2.50
2015,02,16,01,51,2.40
2015,02,16,01,52,2.40
2015,02,16,01,53,2.40
2015,02,16,01,54,2.40
2015,02,16,01,55,2.40
2015,02,16,01,56,2.40
2015,02,16,01,57,2.40
2015,02,16,01,58,2.40
2015,02,16,01,59,2.40
2015,02,16,02,00,2.50
2015,02,16,02,01,2.50
2015,02,16,02,02,2.60
2015,02,16,02,03,2.60
2015,02,16,02,04,2.70
2015,02,16,02,05,2.70
2015,02,16,02,06,2.80
2015,02,16,02,07,2.80
2015,02,16,02,08,2.90
2015,02,16,02,09,2.90
2015,02,16,02,10,2.90
2015,02,16,02,11,2.90
2015,02,16,02,12,2.90
2015,02,16,02,13,2.90
2015,02,16,02,14,2.90
2015,02,16,02,15,2.90
2015,02,16,02,16,2.80
2015,02,16,02,17,2.80
2015,02,16,02,18,2.80
2015,02,16,02,19,2.80
2015,02,16,02,20,2.70
2015,02,16,02,21,2.70
2015,02,16,02,22,2.70
2015,02,16,02,23,2.70
2015,02,16,02,24,2.70
2015,02,16,02,25,2.70
2015,02,16,02,26,2.70
2015,02,16,02,27,2.70
2015,02,16,02,28,2.70
2015,02,16,02,29,2.60
2015,02,16,02,30,2.60
2015,02,16,02,31,2.60
2015,02,16,02,32,2.60
2015,02,16,02,33,2.60
2015,02,16,02,34,2.70
2015,02,16,02,35,2.60
2015,02,16,02,36,2.60
2015,02,16,02,37,2.70
2015,02,16,02,38,2.70
2015,02,16,02,39,2.80
2015,02,16,02,40,2.80
2015,02,16,02,41,2.80
2015,02,16,02,42,2.80
2015,02,16,02,43,2.90
2015,02,16,02,44,2.90
2015,02,16,02,45,3.00
2015,02,16,02,46,3.10
2015,02,16,02,47,3.10
2015,02,16,02,48,3.10
2015,02,16,02,49,3.20
2015,02,16,02,50,3.20
2015,02,16,02,51,3.20
2015,02,16,02,52,3.30
2015,02,16,02,53,3.50
2015,02,16,02,54,3.50
2015,02,16,02,55,3.70
2015,02,16,02,56,4.00
2015,02,16,02,57,4.30
2015,02,16,02,58,4.60
2015,02,16,02,59,4.80
2015,02,16,03,00,5.00
2015,02,16,03,01,5.10
2015,02,16,03,02,5.40
2015,02,16,03,03,5.50
2015,02,16,03,04,5.70
2015,02,16,03,05,5.80
2015,02,16,03,06,6.00
2015,02,16,03,07,6.10
2015,02,16,03,08,6.20
2015,02,16,03,09,6.40
2015,02,16,03,10,6.50
2015,02,16,03,11,6.70
2015,02,16,03,12,6.80
2015,02,16,03,13,7.00
2015,02,16,03,14,7.10
2015,02,16,03,15,7.10
2015,02,16,03,16,7.10
2015,02,16,03,17,7.10
2015,02,16,03,18,7.20
2015,02,16,03,19,7.30
2015,02,16,03,20,7.30
2015,02,16,03,21,7.30
2015,02,16,03,22,7.30
2015,02,16,03,23,7.30
2015,02,16,03,24,7.30
2015,02,16,03,25,7.50
2015,02,16,03,26,7.60
2015,02,16,03,27,7.70
2015,02,16,03,28,7.80
2015,02,16,03,29,7.90
2015,02,16,03,30,8.00
2015,02,16,03,31,8.10
2015,02,16,03,32,8.10
2015,02,16,03,33,8.10
2015,02,16,03,34,8.10
2015,02,16,03,35,8.20
2015,02,16,03,36,8.20
2015,02,16,03,37,8.20
2015,02,16,03,38,8.20
2015,02,16,03,39,8.30
2015,02,16,03,40,8.30
2015,02,16,03,41,8.40
2015,02,16,03,42,8.40
2015,02,16,03,43,8.40
2015,02,16,03,44,8.30
2015,02,16,03,45,8.30
2015,02,16,03,46,8.30
2015,02,16,03,47,8.30
2015,02,16,03,48,8.30
2015,02,16,03,49,8.30
2015,02,16,03,50,8.30
2015,02,16,03,51,8.30
2015,02,16,03,52,8.30
2015,02,16,03,53,8.30
2015,02,16,03,54,8.30
2015,02,16,03,55,8.30
2015,02,16,03,56,8.40
2015,02,16,03,57,8.40
2015,02,16,03,58,8.40
2015,02,16,03,59,8.50
2015,02,16,04,00,8.50
2015,02,16,04,01,8.50
2015,02,16,04,02,8.50
2015,02,16,04,03,8.50
2015,02,16,04,04,8.50
2015,02,16,04,05,8.60
2015,02,16,04,06,8.60
2015,02,16,04,07,8.70
2015,02,16,04,08,8.70
2015,02,16,04,09,8.70
2015,02,16,04,10,8.70
2015,02,16,04,11,8.70
2015,02,16,04,12,8.70
2015,02,16,04,13,8.70
2015,02,16,04,14,8.70
2015,02,16,04,15,8.70
2015,02,16,04,16,8.80
2015,02,16,04,17,8.70
2015,02,16,04,18,8.80
2015,02,16,04,19,8.70
2015,02,16,04,20,8.70
2015,02,16,04,21,8.70
2015,02,16,04,22,8.80
2015,02,16,04,23,8.80
2015,02,16,04,24,8.80
2015,02,16,04,25,8.80
2015,02,16,04,26,8.80
2015,02,16,04,27,8.80
2015,02,16,04,28,8.90
2015,02,16,04,29,8.90
2015,02,16,04,30,8.90
2015,02,16,04,31,8.90
2015,02,16,04,32,8.90
2015,02,16,04,33,9.00
2015,02,16,04,34,9.00
2015,02,16,04,35,9.00
2015,02,16,04,36,9.00
2015,02,16,04,37,9.00
2015,02,16,04,38,9.00
2015,02,16,04,39,9.00
2015,02,16,04,40,9.00
2015,02,16,04,41,9.00
2015,02,16,04,42,9.00
2015,02,16,04,43,9.00
2015,02,16,04,44,9.00
2015,02,16,04,45,8.90
2015,02,16,04,46,8.90
2015,02,16,04,47,8.90
2015,02,16,04,48,8.90
2015,02,16,04,49,8.90
2015,02,16,04,50,8.90
2015,02,16,04,51,9.00
2015,02,16,04,52,9.00
2015,02,16,04,53,9.00
2015,02,16,04,54,8.90
2015,02,16,04,55,8.90
2015,02,16,04,56,8.90
2015,02,16,04,57,8.90
2015,02,16,04,58,8.80
2015,02,16,04,59,8.80
2015,02,16,05,00,8.80
2015,02,16,05,01,8.80
2015,02,16,05,02,8.70
2015,02,16,05,03,8.70
2015,02,16,05,04,8.80
2015,02,16,05,05,8.80
2015,02,16,05,06,8.90
2015,02,16,05,07,8.90
2015,02,16,05,08,9.00
2015,02,16,05,09,9.00
2015,02,16,05,10,9.00
2015,02,16,05,11,9.00
2015,02,16,05,12,9.00
2015,02,16,05,13,9.00
2015,02,16,05,14,9.00
2015,02,16,05,15,8.90
2015,02,16,05,16,8.90
2015,02,16,05,17,8.90
2015,02,16,05,18,8.90
2015,02,16,05,19,8.80
2015,02,16,05,20,8.80
2015,02,16,05,21,8.70
2015,02,16,05,22,8.80
2015,02,16,05,23,8.80
2015,02,16,05,24,8.80
2015,02,16,05,25,8.80
2015,02,16,05,26,8.80
2015,02,16,05,27,8.70
2015,02,16,05,28,8.70
2015,02,16,05,29,8.70
2015,02,16,05,30,8.70
2015,02,16,05,31,8.70
2015,02,16,05,32,8.70
2015,02,16,05,33,8.70
2015,02,16,05,34,8.80
2015,02,16,05,35,8.80
2015,02,16,05,36,8.70
2015,02,16,05,37,8.70
2015,02,16,05,38,8.70
2015,02,16,05,39,8.70
2015,02,16,05,40,8.80
2015,02,16,05,41,8.80
2015,02,16,05,42,8.80
2015,02,16,05,43,8.90
2015,02,16,05,44,8.90
2015,02,16,05,45,8.80
2015,02,16,05,46,8.80
2015,02,16,05,47,8.80
2015,02,16,05,48,8.80
2015,02,16,05,49,8.80
2015,02,16,05,50,8.70
2015,02,16,05,51,8.70
2015,02,16,05,52,8.70
2015,02,16,05,53,8.70
2015,02,16,05,54,8.80
2015,02,16,05,55,8.90
2015,02,16,05,56,8.90
2015,02,16,05,57,8.80
2015,02,16,05,58,8.80
2015,02,16,05,59,8.80
2015,02,16,06,00,8.80
2015,02,16,06,01,8.80
2015,02,16,06,02,8.80
2015,02,16,06,03,8.80
2015,02,16,06,04,8.80
2015,02,16,06,05,8.70
2015,02,16,06,06,8.70
2015,02,16,06,07,8.70
2015,02,16,06,08,8.70
2015,02,16,06,09,8.70
2015,02,16,06,10,8.70
2015,02,16,06,11,8.70
2015,02,16,06,12,8.60
2015,02,16,06,13,8.60
2015,02,16,06,14,8.60
2015,02,16,06,15,8.50
2015,02,16,06,16,8.50
2015,02,16,06,17,8.50
2015,02,16,06,18,8.50
2015,02,16,06,19,8.50
2015,02,16,06,20,8.50
2015,02,16,06,21,8.50
2015,02,16,06,22,8.50
2015,02,16,06,23,8.50
2015,02,16,06,24,8.50
2015,02,16,06,25,8.50
2015,02,16,06,26,8.50
2015,02,16,06,27,8.50
2015,02,16,06,28,8.50
2015,02,16,06,29,8.40
2015,02,16,06,30,8.40
2015,02,16,06,31,8.50
2015,02,16,06,32,8.50
2015,02,16,06,33,8.50
2015,02,16,06,34,8.50
2015,02,16,06,35,8.50
2015,02,16,06,36,8.50
2015,02,16,06,37,8.50
2015,02,16,06,38,8.50
2015,02,16,06,39,8.50
2015,02,16,06,40,8.40
2015,02,16,06,41,8.40
2015,02,16,06,42,8.30
2015,02,16,06,43,8.30
2015,02,16,06,44,8.20
2015,02,16,06,45,8.20
2015,02,16,06,46,8.10
2015,02,16,06,47,8.10
2015,02,16,06,48,8.00
2015,02,16,06,49,8.00
2015,02,16,06,50,8.00
2015,02,16,06,51,8.00
2015,02,16,06,52,8.00
2015,02,16,06,53,7.90
2015,02,16,06,54,7.90
2015,02,16,06,55,7.90
2015,02,16,06,56,7.90
2015,02,16,06,57,7.90
2015,02,16,06,58,7.80
2015,02,16,06,59,7.80
2015,02,16,07,00,7.80
2015,02,16,07,01,7.80
2015,02,16,07,02,7.80
2015,02,16,07,03,7.80
2015,02,16,07,04,7.80
2015,02,16,07,05,7.80
2015,02,16,07,06,7.80
2015,02,16,07,07,7.80
2015,02,16,07,08,7.80
2015,02,16,07,09,7.80
2015,02,16,07,10,7.70
2015,02,16,07,11,7.70
2015,02,16,07,12,7.60
2015,02,16,07,13,7.60
2015,02,16,07,14,7.50
2015,02,16,07,15,7.50
2015,02,16,07,16,7.40
2015,02,16,07,17,7.30
2015,02,16,07,18,7.30
2015,02,16,07,19,7.30
2015,02,16,07,20,7.30
2015,02,16,07,21,7.20
2015,02,16,07,22,7.20
2015,02,16,07,23,7.20
2015,02,16,07,24,7.20
2015,02,16,07,25,7.20
2015,02,16,07,26,7.20
2015,02,16,07,27,7.30
2015,02,16,07,28,7.30
2015,02,16,07,29,7.30
2015,02,16,07,30,7.40
2015,02,16,07,31,7.40
2015,02,16,07,32,7.40
2015,02,16,07,33,7.50
2015,02,16,07,34,7.50
2015,02,16,07,35,7.50
2015,02,16,07,36,7.50
2015,02,16,07,37,7.50
2015,02,16,07,38,7.50
2015,02,16,07,39,7.50
2015,02,16,07,40,7.60
2015,02,16,07,41,7.60
2015,02,16,07,42,7.60
2015,02,16,07,43,7.60
2015,02,16,07,44,7.60
2015,02,16,07,45,7.70
2015,02,16,07,46,7.70
2015,02,16,07,47,7.70
2015,02,16,07,48,7.80
2015,02,16,07,49,7.80
2015,02,16,07,50,7.80
2015,02,16,07,51,7.90
2015,02,16,07,52,7.90
2015,02,16,07,53,7.90
2015,02,16,07,54,8.00
2015,02,16,07,55,8.00
2015,02,16,07,56,8.00
2015,02,16,07,57,8.00
2015,02,16,07,58,8.00
2015,02,16,07,59,8.00
2015,02,16,08,00,8.00
2015,02,16,08,01,8.00
2015,02,16,08,02,7.90
2015,02,16,08,03,7.90
2015,02,16,08,04,7.90
2015,02,16,08,05,7.90
2015,02,16,08,06,7.80
2015,02,16,08,07,7.80
2015,02,16,08,08,7.80
2015,02,16,08,09,7.80
2015,02,16,08,10,7.90
2015,02,16,08,11,7.90
2015,02,16,08,12,7.90
2015,02,16,08,13,7.90
2015,02,16,08,14,7.90
2015,02,16,08,15,7.90
2015,02,16,08,16,7.90
2015,02,16,08,17,8.00
2015,02,16,08,18,8.00
2015,02,16,08,19,8.00
2015,02,16,08,20,8.10
2015,02,16,08,21,8.10
2015,02,16,08,22,8.20
2015,02,16,08,23,8.20
2015,02,16,08,24,8.20
2015,02,16,08,25,8.30
2015,02,16,08,26,8.30
2015,02,16,08,27,8.40
2015,02,16,08,28,8.40
2015,02,16,08,29,8.50
2015,02,16,08,30,8.50
2015,02,16,08,31,8.60
2015,02,16,08,32,8.60
2015,02,16,08,33,8.70
2015,02,16,08,34,8.70
2015,02,16,08,35,8.70
2015,02,16,08,36,8.80
2015,02,16,08,37,8.80
2015,02,16,08,38,8.90
2015,02,16,08,39,8.90
2015,02,16,08,40,8.90
2015,02,16,08,41,9.00
2015,02,16,08,42,9.00
2015,02,16,08,43,9.10
2015,02,16,08,44,9.20
2015,02,16,08,45,9.20
2015,02,16,08,46,9.20
2015,02,16,08,47,9.30
2015,02,16,08,48,9.30
2015,02,16,08,49,9.40
2015,02,16,08,50,9.40
2015,02,16,08,51,9.50
2015,02,16,08,52,9.50
2015,02,16,08,53,9.50
2015,02,16,08,54,9.50
2015,02,16,08,55,9.60
2015,02,16,08,56,9.60
2015,02,16,08,57,9.60
2015,02,16,08,58,9.60
2015,02,16,08,59,9.70
2015,02,16,09,00,9.70
2015,02,16,09,01,9.70
2015,02,16,09,02,9.70
2015,02,16,09,03,9.70
2015,02,16,09,04,9.70
2015,02,16,09,05,9.70
2015,02,16,09,06,9.70
2015,02,16,09,07,9.70
2015,02,16,09,08,9.70
2015,02,16,09,09,9.70
2015,02,16,09,10,9.70
2015,02,16,09,11,9.70
2015,02,16,09,12,9.80
2015,02,16,09,13,9.80
2015,02,16,09,14,9.80
2015,02,16,09,15,9.80
2015,02,16,09,16,9.90
2015,02,16,09,17,9.90
2015,02,16,09,18,9.90
2015,02,16,09,19,9.90
2015,02,16,09,20,9.90
2015,02,16,09,21,9.90
2015,02,16,09,22,9.90
2015,02,16,09,23,9.90
2015,02,16,09,24,10.00
2015,02,16,09,25,10.10
2015,02,16,09,26,10.10
2015,02,16,09,27,10.10
2015,02,16,09,28,10.10
2015,02,16,09,29,10.10
2015,02,16,09,30,10.10
2015,02,16,09,31,10.10
2015,02,16,09,32,10.20
2015,02,16,09,33,10.20
2015,02,16,09,34,10.20
2015,02,16,09,35,10.30
2015,02,16,09,36,10.30
2015,02,16,09,37,10.40
2015,02,16,09,38,10.40
2015,02,16,09,39,10.40
2015,02,16,09,40,10.40
2015,02,16,09,41,10.50
2015,02,16,09,42,10.60
2015,02,16,09,43,10.60
2015,02,16,09,44,10.60
2015,02,16,09,45,10.60
2015,02,16,09,46,10.60
2015,02,16,09,47,10.60
2015,02,16,09,48,10.60
2015,02,16,09,49,10.60
2015,02,16,09,50,10.60
2015,02,16,09,51,10.60
2015,02,16,09,52,10.70
2015,02,16,09,53,10.70
2015,02,16,09,54,10.70
2015,02,16,09,55,10.70
2015,02,16,09,56,10.70
2015,02,16,09,57,10.70
2015,02,16,09,58,10.70
2015,02,16,09,59,10.70
2015,02,16,10,00,10.70
2015,02,16,10,01,10.70
2015,02,16,10,02,10.70
2015,02,16,10,03,10.60
2015,02,16,10,04,10.60
2015,02,16,10,05,10.60
2015,02,16,10,06,10.60
2015,02,16,10,07,10.60
2015,02,16,10,08,10.60
2015,02,16,10,09,10.60
2015,02,16,10,10,10.60
2015,02,16,10,11,10.60
2015,02,16,10,12,10.70
2015,02,16,10,13,10.70
2015,02,16,10,14,10.70
2015,02,16,10,15,10.80
2015,02,16,10,16,10.90
2015,02,16,10,17,10.90
2015,02,16,10,18,11.00
2015,02,16,10,19,11.10
2015,02,16,10,20,11.10
2015,02,16,10,21,11.20
2015,02,16,10,22,11.30
2015,02,16,10,23,11.40
2015,02,16,10,24,11.40
2015,02,16,10,25,11.50
2015,02,16,10,26,11.60
2015,02,16,10,27,11.60
2015,02,16,10,28,11.70
2015,02,16,10,29,11.70
2015,02,16,10,30,11.60
2015,02,16,10,31,11.70
2015,02,16,10,32,11.60
2015,02,16,10,33,11.60
2015,02,16,10,34,11.60
2015,02,16,10,35,11.70
2015,02,16,10,36,11.70
2015,02,16,10,37,11.70
2015,02,16,10,38,11.70
2015,02,16,10,39,11.80
2015,02,16,10,40,11.80
2015,02,16,10,41,11.80
2015,02,16,10,42,11.80
2015,02,16,10,43,11.80
2015,02,16,10,44,11.80
2015,02,16,10,45,11.80
2015,02,16,10,46,11.80
2015,02,16,10,47,11.80
2015,02,16,10,48,11.70
2015,02,16,10,49,11.70
2015,02,16,10,50,11.70
2015,02,16,10,51,11.70
2015,02,16,10,52,11.70
2015,02,16,10,53,11.70
2015,02,16,10,54,11.70
2015,02,16,10,55,11.80
2015,02,16,10,56,11.80
2015,02,16,10,57,11.90
2015,02,16,10,58,12.00
2015,02,16,10,59,12.10
2015,02,16,11,00,12.10
2015,02,16,11,01,12.10
2015,02,16,11,02,12.10
2015,02,16,11,03,12.20
2015,02,16,11,04,12.10
2015,02,16,11,05,12.00
2015,02,16,11,06,12.00
2015,02,16,11,07,11.90
2015,02,16,11,08,11.90
2015,02,16,11,09,11.90
2015,02,16,11,10,11.80
2015,02,16,11,11,11.80
2015,02,16,11,12,11.80
2015,02,16,11,13,11.80
2015,02,16,11,14,11.90
2015,02,16,11,15,11.90
2015,02,16,11,16,11.90
2015,02,16,11,17,12.00
2015,02,16,11,18,12.00
2015,02,16,11,19,12.00
2015,02,16,11,20,12.10
2015,02,16,11,21,12.10
2015,02,16,11,22,12.10
2015,02,16,11,23,12.00
2015,02,16,11,24,12.00
2015,02,16,11,25,12.00
2015,02,16,11,26,12.00
2015,02,16,11,27,12.00
2015,02,16,11,28,12.00
2015,02,16,11,29,12.00
2015,02,16,11,30,12.10
2015,02,16,11,31,12.00
2015,02,16,11,32,12.00
2015,02,16,11,33,12.00
2015,02,16,11,34,12.00
2015,02,16,11,35,12.00
2015,02,16,11,36,12.00
2015,02,16,11,37,12.10
2015,02,16,11,38,12.10
2015,02,16,11,39,12.10
2015,02,16,11,40,12.20
2015,02,16,11,41,12.20
2015,02,16,11,42,12.20
2015,02,16,11,43,12.20
2015,02,16,11,44,12.20
2015,02,16,11,45,12.20
2015,02,16,11,46,12.10
2015,02,16,11,47,12.10
2015,02,16,11,48,12.10
2015,02,16,11,49,12.20
2015,02,16,11,50,12.20
2015,02,16,11,51,12.20
2015,02,16,11,52,12.20
2015,02,16,11,53,12.20
2015,02,16,11,54,12.20
2015,02,16,11,55,12.10
2015,02,16,11,56,12.10
2015,02,16,11,57,12.00
2015,02,16,11,58,12.00
2015,02,16,11,59,12.00
2015,02,16,12,00,12.00
2015,02,16,12,01,12.00
2015,02,16,12,02,12.00
2015,02,16,12,03,12.10
2015,02,16,12,04,12.10
2015,02,16,12,05,12.00
2015,02,16,12,06,12.00
2015,02,16,12,07,12.00
2015,02,16,12,08,12.00
2015,02,16,12,09,12.10
2015,02,16,12,10,12.10
2015,02,16,12,11,12.00
2015,02,16,12,12,12.00
2015,02,16,12,13,12.00
2015,02,16,12,14,12.00
2015,02,16,12,15,12.00
2015,02,16,12,16,12.00
2015,02,16,12,17,12.00
2015,02,16,12,18,12.00
2015,02,16,12,19,12.00
2015,02,16,12,20,12.00
2015,02,16,12,21,12.00
2015,02,16,12,22,12.00
2015,02,16,12,23,12.00
2015,02,16,12,24,12.00
2015,02,16,12,25,12.10
2015,02,16,12,26,12.20
2015,02,16,12,27,12.20
2015,02,16,12,28,12.30
2015,02,16,12,29,12.30
2015,02,16,12,30,12.40
2015,02,16,12,31,12.40
2015,02,16,12,32,12.50
2015,02,16,12,33,12.50
2015,02,16,12,34,12.50
2015,02,16,12,35,12.50
2015,02,16,12,36,12.60
2015,02,16,12,37,12.60
2015,02,16,12,38,12.70
2015,02,16,12,39,12.80
2015,02,16,12,40,12.90
2015,02,16,12,41,13.00
2015,02,16,12,42,13.10
2015,02,16,12,43,13.10
2015,02,16,12,44,13.20
2015,02,16,12,45,13.10
2015,02,16,12,46,13.10
2015,02,16,12,47,13.00
2015,02,16,12,48,13.00
2015,02,16,12,49,13.00
2015,02,16,12,50,13.10
2015,02,16,12,51,13.10
2015,02,16,12,52,13.20
2015,02,16,12,53,13.10
2015,02,16,12,54,13.10
2015,02,16,12,55,13.10
2015,02,16,12,56,13.00
2015,02,16,12,57,12.90
2015,02,16,12,58,12.90
2015,02,16,12,59,12.90
2015,02,16,13,00,13.00
2015,02,16,13,01,13.10
2015,02,16,13,02,13.10
2015,02,16,13,03,13.20
2015,02,16,13,04,13.20
2015,02,16,13,05,13.10
2015,02,16,13,06,13.10
2015,02,16,13,07,13.10
2015,02,16,13,08,13.10
2015,02,16,13,09,13.10
2015,02,16,13,10,13.10
2015,02,16,13,11,13.10
2015,02,16,13,12,13.10
2015,02,16,13,13,13.10
2015,02,16,13,14,13.10
2015,02,16,13,15,13.10
2015,02,16,13,16,13.10
2015,02,16,13,17,13.00
2015,02,16,13,18,13.00
2015,02,16,13,19,13.00
2015,02,16,13,20,13.00
2015,02,16,13,21,13.00
2015,02,16,13,22,13.10
2015,02,16,13,23,13.10
2015,02,16,13,24,13.20
2015,02,16,13,25,13.20
2015,02,16,13,26,13.30
2015,02,16,13,27,13.30
2015,02,16,13,28,13.30
2015,02,16,13,29,13.30
2015,02,16,13,30,13.30
2015,02,16,13,31,13.30
2015,02,16,13,32,13.30
2015,02,16,13,33,13.30
2015,02,16,13,34,13.30
2015,02,16,13,35,13.30
2015,02,16,13,36,13.20
2015,02,16,13,37,13.20
2015,02,16,13,38,13.20
2015,02,16,13,39,13.20
2015,02,16,13,40,13.20
2015,02,16,13,41,13.10
2015,02,16,13,42,13.20
2015,02,16,13,43,13.10
2015,02,16,13,44,13.10
2015,02,16,13,45,13.20
2015,02,16,13,46,13.20
2015,02,16,13,47,13.20
2015,02,16,13,48,13.20
2015,02,16,13,49,13.30
2015,02,16,13,50,13.30
2015,02,16,13,51,13.30
2015,02,16,13,52,13.30
2015,02,16,13,53,13.30
2015,02,16,13,54,13.30
2015,02,16,13,55,13.40
2015,02,16,13,56,13.50
2015,02,16,13,57,13.50
2015,02,16,13,58,13.50
2015,02,16,13,59,13.50
2015,02,16,14,00,13.60
2015,02,16,14,01,13.60
2015,02,16,14,02,13.60
2015,02,16,14,03,13.70
2015,02,16,14,04,13.70
2015,02,16,14,05,13.70
2015,02,16,14,06,13.70
2015,02,16,14,07,13.70
2015,02,16,14,08,13.70
2015,02,16,14,09,13.60
2015,02,16,14,10,13.60
2015,02,16,14,11,13.60
2015,02,16,14,12,13.60
2015,02,16,14,13,13.50
2015,02,16,14,14,13.50
2015,02,16,14,15,13.50
2015,02,16,14,16,13.50
2015,02,16,14,17,13.50
2015,02,16,14,18,13.50
2015,02,16,14,19,13.50
2015,02,16,14,20,13.50
2015,02,16,14,21,13.50
2015,02,16,14,22,13.50
2015,02,16,14,23,13.50
2015,02,16,14,24,13.40
2015,02,16,14,25,13.40
2015,02,16,14,26,13.30
2015,02,16,14,27,13.30
2015,02,16,14,28,13.30
2015,02,16,14,29,13.30
2015,02,16,14,30,13.30
2015,02,16,14,31,13.30
2015,02,16,14,32,13.30
2015,02,16,14,33,13.30
2015,02,16,14,34,13.30
2015,02,16,14,35,13.30
2015,02,16,14,36,13.30
2015,02,16,14,37,13.30
2015,02,16,14,38,13.30
2015,02,16,14,39,13.30
2015,02,16,14,40,13.30
2015,02,16,14,41,13.30
2015,02,16,14,42,13.30
2015,02,16,14,43,13.30
2015,02,16,14,44,13.30
2015,02,16,14,45,13.30
2015,02,16,14,46,13.30
2015,02,16,14,47,13.40
2015,02,16,14,48,13.30
2015,02,16,14,49,13.30
2015,02,16,14,50,13.30
2015,02,16,14,51,13.30
2015,02,16,14,52,13.30
2015,02,16,14,53,13.30
2015,02,16,14,54,13.20
2015,02,16,14,55,13.20
2015,02,16,14,56,13.20
2015,02,16,14,57,13.20
2015,02,16,14,58,13.10
2015,02,16,14,59,13.10
2015,02,16,15,00,13.10
2015,02,16,15,01,13.10
2015,02,16,15,02,13.10
2015,02,16,15,03,13.10
2015,02,16,15,04,13.10
2015,02,16,15,05,13.20
2015,02,16,15,06,13.20
2015,02,16,15,07,13.10
2015,02,16,15,08,13.10
2015,02,16,15,09,13.00
2015,02,16,15,10,13.00
2015,02,16,15,11,13.00
2015,02,16,15,12,13.10
2015,02,16,15,13,13.10
2015,02,16,15,14,13.10
2015,02,16,15,15,13.10
2015,02,16,15,16,13.00
2015,02,16,15,17,13.00
2015,02,16,15,18,13.00
2015,02,16,15,19,13.00
2015,02,16,15,20,12.90
2015,02,16,15,21,12.90
2015,02,16,15,22,12.90
2015,02,16,15,23,12.90
2015,02,16,15,24,13.00
2015,02,16,15,25,13.00
2015,02,16,15,26,13.00
2015,02,16,15,27,12.90
2015,02,16,15,28,12.90
2015,02,16,15,29,12.80
2015,02,16,15,30,12.80
2015,02,16,15,31,12.80
2015,02,16,15,32,12.80
2015,02,16,15,33,12.80
2015,02,16,15,34,12.80
2015,02,16,15,35,12.80
2015,02,16,15,36,12.80
2015,02,16,15,37,12.80
2015,02,16,15,38,12.80
2015,02,16,15,39,12.80
2015,02,16,15,40,12.70
2015,02,16,15,41,12.70
2015,02,16,15,42,12.70
2015,02,16,15,43,12.70
2015,02,16,15,44,12.70
2015,02,16,15,45,12.60
2015,02,16,15,46,12.60
2015,02,16,15,47,12.60
2015,02,16,15,48,12.60
2015,02,16,15,49,12.60
2015,02,16,15,50,12.60
2015,02,16,15,51,12.60
2015,02,16,15,52,12.60
2015,02,16,15,53,12.60
2015,02,16,15,54,12.60
2015,02,16,15,55,12.60
2015,02,16,15,56,12.60
2015,02,16,15,57,12.60
2015,02,16,15,58,12.60
2015,02,16,15,59,12.60
2015,02,16,16,00,12.60
2015,02,16,16,01,12.50
2015,02,16,16,02,12.50
2015,02,16,16,03,12.50
2015,02,16,16,04,12.50
2015,02,16,16,05,12.50
2015,02,16,16,06,12.50
2015,02,16,16,07,12.50
2015,02,16,16,08,12.40
2015,02,16,16,09,12.40
2015,02,16,16,10,12.40
2015,02,16,16,11,12.40
2015,02,16,16,12,12.40
2015,02,16,16,13,12.30
2015,02,16,16,14,12.30
2015,02,16,16,15,12.30
2015,02,16,16,16,12.30
2015,02,16,16,17,12.30
2015,02,16,16,18,12.30
2015,02,16,16,19,12.30
2015,02,16,16,20,12.30
2015,02,16,16,21,12.30
2015,02,16,16,22,12.30
2015,02,16,16,23,12.30
2015,02,16,16,24,12.30
2015,02,16,16,25,12.30
2015,02,16,16,26,12.30
2015,02,16,16,27,12.30
2015,02,16,16,28,12.30
2015,02,16,16,29,12.30
2015,02,16,16,30,12.30
2015,02,16,16,31,12.30
2015,02,16,16,32,12.30
2015,02,16,16,33,12.30
2015,02,16,16,34,12.20
2015,02,16,16,35,12.20
2015,02,16,16,36,12.20
2015,02,16,16,37,12.20
2015,02,16,16,38,12.20
2015,02,16,16,39,12.20
2015,02,16,16,40,12.20
2015,02,16,16,41,12.20
2015,02,16,16,42,12.20
2015,02,16,16,43,12.20
2015,02,16,16,44,12.10
2015,02,16,16,45,12.10
2015,02,16,16,46,12.10
2015,02,16,16,47,12.10
2015,02,16,16,48,12.00
2015,02,16,16,49,12.00
2015,02,16,16,50,12.00
2015,02,16,16,51,12.00
2015,02,16,16,52,11.90
2015,02,16,16,53,11.90
2015,02,16,16,54,11.90
2015,02,16,16,55,11.90
2015,02,16,16,56,11.90
2015,02,16,16,57,11.90
2015,02,16,16,58,11.80
2015,02,16,16,59,11.80
2015,02,16,17,00,11.80
2015,02,16,17,01,11.80
2015,02,16,17,02,11.80
2015,02,16,17,03,11.80
2015,02,16,17,04,11.80
2015,02,16,17,05,11.80
2015,02,16,17,06,11.70
2015,02,16,17,07,11.70
2015,02,16,17,08,11.70
2015,02,16,17,09,11.70
2015,02,16,17,10,11.70
2015,02,16,17,11,11.70
2015,02,16,17,12,11.60
2015,02,16,17,13,11.60
2015,02,16,17,14,11.60
2015,02,16,17,15,11.60
2015,02,16,17,16,11.60
2015,02,16,17,17,11.60
2015,02,16,17,18,11.60
2015,02,16,17,19,11.50
2015,02,16,17,20,11.40
2015,02,16,17,21,11.40
2015,02,16,17,22,11.40
2015,02,16,17,23,11.40
2015,02,16,17,24,11.40
2015,02,16,17,25,11.40
2015,02,16,17,26,11.40
2015,02,16,17,27,11.40
2015,02,16,17,28,11.30
2015,02,16,17,29,11.30
2015,02,16,17,30,11.30
2015,02,16,17,31,11.30
2015,02,16,17,32,11.30
2015,02,16,17,33,11.20
2015,02,16,17,34,11.20
2015,02,16,17,35,11.20
2015,02,16,17,36,11.20
2015,02,16,17,37,11.10
2015,02,16,17,38,11.10
2015,02,16,17,39,11.10
2015,02,16,17,40,11.00
2015,02,16,17,41,10.90
2015,02,16,17,42,10.90
2015,02,16,17,43,10.90